sat.trackr.live / text

‹ back to catalog

STARLINK-4049

NORAD 52840 · 2022-062L

PAYLOAD ACTIVE UNKNOWN

§ Identity

Operator
Country
US
Launch date
2022-06-17
Launch site
AFETR
Launch vehicle
Mass (kg)
RCS (m²)

Purposes: comms

External: N2YO · Heavens-Above · Gunter

§ Orbital elements

Epoch: 2026-09-19T12:12:13.078944Z

Period
94.00 min
Inclination
53.1612°
Eccentricity
0.0002309
Mean motion
15.31963402 rev/d
Perigee alt
468.4 km
Apogee alt
471.5 km
Semi-major
6,848.1 km
B*
1.0977e-3
RAAN
208.0263°
Arg perigee
60.5407°
Mean anomaly
299.5825°
Rev number
23,555

§ Raw data

STARLINK-40491 52840U 22062L   26262.50848471  .00034137  00000+0  10977-2 0  99992 52840  53.1612 208.0263 0002309  60.5407 299.5825 15.31963402235550

JSON: /api/v1/satellites/52840 · /tle

For live sub-satellite position, see the globe view (requires WebGL).

§ Visibility from observer

Set your observer location to see the next 7 days of passes ≥ 10°. The values pass through the URL so the page stays shareable.

No JS? Fill the form by hand. The geolocation button needs JavaScript.